Snowfall_Accumulation
0.3 0.4 0.4 0.3 0.2 0.4 0.6 0.7 1.5 1.4 0.3 0.1 0.1 0.1 0.1 0.1 0.1 0.2 0.2 0.1 0.0 0.1 0.1 0.1 0.2 0.2 0.2 0.2 0.2 0.2 0.2 0.2 0.1 0.1 0.1 0.0 0.0 0.1
0.4 0.6 0.4 0.4 0.2 0.4 0.5 0.5 1.0 1.7 1.3 0.2 0.1 0.1 0.1 0.1 0.1 0.1 0.1 0.2 0.2 0.3 0.1 0.1 0.2 0.2 0.3 0.3 0.3 0.3 0.3 0.2 0.2 0.2 0.2 0.2 0.1 0.1
0.5 0.7 0.6 0.5 0.6 0.4 0.5 0.5 0.8 1.3 1.7 0.6 0.2 0.2 0.2 0.3 0.2 0.0 0.0 0.1 0.2 0.1 0.2 0.1 0.2 0.3 0.4 0.4 0.4 0.4 0.4 0.4 0.3 0.3 0.3 0.3 0.2 0.2
0.7 0.6 0.6 0.6 0.9 0.7 0.6 0.6 0.7 0.9 1.5 1.4 0.6 0.7 0.6 0.4 0.3 0.2 0.1 0.2 0.1 0.1 0.2 0.2 0.3 0.4 0.5 0.6 0.6 0.6 0.5 0.5 0.5 0.4 0.4 0.3 0.3 0.3
0.8 0.9 0.8 0.8 1.0 1.2 0.8 1.0 0.9 0.9 1.3 1.9 1.4 1.0 0.9 0.7 0.6 0.6 0.4 0.2 0.1 0.1 0.1 0.2 0.3 0.4 0.8 0.7 0.7 0.6 0.7 0.6 0.6 0.6 0.6 0.5 0.5 0.5
0.9 0.9 1.0 1.3 1.4 1.4 1.5 1.5 1.4 1.9 2.1 2.3 2.3 2.1 1.7 1.2 1.1 1.2 1.1 0.9 0.6 0.3 0.4 0.2 0.4 0.5 0.5 0.3 0.4 0.5 0.6 0.7 0.9 0.9 1.1 1.0 0.9 0.8
1.3 1.4 1.6 1.5 1.5 1.7 2.1 2.7 2.9 3.6 3.9 4.5 4.2 3.2 1.9 1.5 1.3 1.1 1.8 1.7 1.3 0.7 0.9 0.6 0.9 0.8 0.6 0.3 0.4 0.3 0.7 1.0 1.1 1.2 1.4 1.4 1.3 1.2
2.1 2.0 2.0 2.0 1.9 1.8 1.7 2.1 3.5 5.3 6.5 6.6 5.0 3.3 1.8 1.2 1.3 1.7 2.6 3.3 2.6 0.9 1.3 0.9 0.7 1.1 1.1 0.5 0.6 0.6 0.9 1.1 1.3 1.4 1.6 1.7 1.7 1.5
2.7 2.9 2.9 2.4 2.3 2.2 2.1 2.0 2.4 3.0 4.0 4.6 4.7 2.8 1.7 1.7 2.7 3.8 3.8 4.1 3.3 1.7 1.9 2.3 1.2 1.3 1.2 1.0 0.7 0.8 0.6 1.0 1.3 1.7 1.9 2.0 1.9 1.7
3.2 2.7 2.5 2.3 2.2 2.9 3.2 3.8 2.7 2.0 1.5 1.9 2.3 2.0 1.9 1.8 3.2 4.8 4.8 4.3 2.5 1.4 1.5 3.2 1.9 1.6 1.6 1.2 1.0 0.9 1.1 1.2 1.7 2.1 2.2 2.2 2.1 2.2
2.5 2.2 2.2 2.2 2.3 3.6 5.0 5.4 3.1 1.8 1.3 1.5 2.0 2.3 2.3 2.6 3.1 5.6 6.7 6.9 6.1 2.6 1.6 3.3 2.6 2.5 2.0 2.0 1.1 1.2 1.3 1.7 1.4 1.4 1.8 1.9 1.9 2.2
2.3 1.7 1.8 2.4 3.2 4.7 5.6 5.7 5.1 3.2 2.9 1.9 1.6 1.5 1.8 1.7 2.0 3.7 6.2 9.8 9.2 6.3 2.3 3.4 3.7 4.5 6.1 2.9 1.8 1.7 1.6 1.4 1.9 1.8 1.4 1.6 2.0 2.7
3.1 2.4 1.6 2.7 3.9 4.9 5.1 5.1 5.2 5.1 4.6 4.0 3.2 2.9 2.7 2.5 2.1 2.2 3.7 8.1 11.8 8.9 3.6 6.8 8.8 6.9 9.7 6.1 3.3 2.3 2.4 2.4 1.8 2.0 2.2 2.4 2.7 4.4
4.2 3.1 2.9 3.6 4.4 4.2 4.3 4.1 4.8 5.3 5.6 5.3 4.6 4.1 3.6 3.7 3.4 3.1 3.5 4.0 5.6 6.6 4.5 7.9 14.2 10.9 13.1 11.1 6.5 4.6 4.0 3.4 3.4 4.1 3.8 3.9 4.6 4.6
4.4 4.0 4.3 4.6 4.5 4.1 3.7 3.9 4.3 5.1 5.9 6.2 5.8 4.6 4.2 4.1 4.1 4.2 3.9 3.7 4.1 4.2 4.3 5.1 9.5 10.8 13.7 14.3 9.4 5.7 5.5 5.2 4.4 5.7 5.4 5.5 5.5 5.7
4.8 4.2 4.0 3.8 4.0 4.0 3.7 4.3 4.4 5.2 6.2 6.7 6.4 5.6 5.0 5.3 5.6 5.4 5.9 5.8 6.7 6.2 5.2 5.0 6.2 10.1 12.8 9.9 10.0 9.5 6.6 7.8 7.0 7.3 7.6 7.3 6.3 6.1
6.5 5.6 4.6 4.2 4.3 4.7 4.8 4.6 4.9 5.2 6.8 6.5 7.3 7.5 6.8 6.6 6.5 6.5 8.1 8.7 9.2 7.2 6.5 5.7 5.6 6.7 8.4 10.3 11.7 8.9 7.4 7.7 8.7 10.1 11.4 11.1 7.2 5.4
7.0 6.9 5.3 4.8 5.1 5.2 5.6 6.1 6.1 6.7 7.1 7.8 8.4 8.7 9.1 8.9 8.5 7.8 8.7 10.1 10.1 8.1 7.9 7.2 8.4 9.9 10.0 8.8 8.1 9.7 9.9 10.0 10.4 11.1 12.8 14.9 11.9 6.5
7.3 6.5 5.6 5.5 5.8 5.9 6.1 6.7 7.2 6.9 7.6 9.0 9.7 10.5 11.4 10.9 9.9 9.7 9.7 10.0 9.6 8.8 8.3 8.6 11.2 16.0 16.6 11.6 7.9 8.2 12.2 13.0 12.0 12.2 13.1 15.6 17.4 10.8
6.2 6.5 6.6 6.3 6.3 6.6 6.9 7.4 7.4 7.6 8.6 9.0 9.9 11.3 12.4 13.3 12.3 11.0 10.1 10.5 10.9 9.9 9.0 8.2 10.0 14.9 20.2 17.2 13.4 10.1 9.1 14.3 16.6 17.0 14.6 12.1 10.0 6.7
6.3 6.5 7.1 7.3 7.6 7.6 7.7 8.0 8.6 9.0 9.1 10.4 10.9 11.6 13.1 14.9 14.1 12.1 11.7 11.2 12.1 12.3 11.3 8.9 8.1 9.8 14.8 18.0 16.1 11.3 10.7 9.4 12.3 19.1 19.2 18.0 15.0 12.5
6.2 6.7 6.9 7.4 7.9 8.3 8.8 9.0 9.3 9.3 9.8 10.8 11.4 11.9 12.7 14.6 15.1 13.8 13.4 13.3 12.4 11.9 11.3 9.5 9.4 11.0 14.2 17.6 14.4 10.1 9.9 9.5 9.0 8.8 11.6 16.6 26.4 28.1
7.3 7.3 7.2 7.6 7.8 8.5 9.4 9.6 9.8 9.5 9.7 11.1 12.4 12.8 13.3 14.0 13.8 14.3 14.4 14.0 14.0 13.2 12.5 11.8 10.4 10.5 11.2 11.8 12.4 10.7 9.7 9.5 9.5 10.3 11.8 11.0 9.8 11.7